Tracking 17138 objects as of 7-July-2015
HD Live streaming from Space Station

COSMOS 2278

Track COSMOS 2278 now!
10-day predictions
COSMOS 2278 is classified as:


NORAD ID: 23087
Int'l Code: 1994-023A
Perigee: 846.3 km
Apogee: 861.6 km
Inclination: 71.1 °
Period: 101.9 minutes
Semi major axis: 7224 km
RCS: 13.2242 m2 (large)
Launch date: April 23, 1994
Source: Commonwealth of Independent States (former USSR) (CIS)
Your satellite tracking list
Your tracking list is empty





NASA's NSSDC Master Catalog

Two Line Element Set (TLE):
1 23087U 94023A   15188.19517880 -.00000262  00000-0 -11378-3 0  9995
2 23087 071.0529 044.9023 0010609 229.4395 266.9980 14.13674702 94017

Source of the keplerian elements: AFSPC

N2YO: 318